When you browse on this site, cookies collect data to enhance your experience and personalize the content and advertising you see.
Visit our Privacy Policy to learn more. By continuing to use the site, you agree to this use of cookies and data.
  • In Portugal
  • List of Countries
  • For 7 days
  • Water Temperature
  • Satellite Maps
  • Weather Map
  • Weather Widgets
  • user-avatar
    Login

    Hourly Weather Al-Chums

    Today, 24 January, Thursday

    Time Temperature Precipitation Wind Pressure Humidity
    00:00 +7°C° 0 mm 6 mps 717 mmHg 48%
    01:00 +7°C° 0 mm 5 mps 717 mmHg 49%
    02:00 +6°C° 0 mm 5 mps 717 mmHg 51%
    03:00 +6°C° 0 mm 4 mps 716 mmHg 53%
    04:00 +6°C° 0 mm 4 mps 716 mmHg 55%
    05:00 +5°C° 0 mm 3 mps 716 mmHg 57%
    06:00 +7°C° 0 mm 3 mps 716 mmHg 57%
    07:00 +7°C° 0 mm 3 mps 716 mmHg 57%
    08:00 +7°C° 0 mm 3 mps 716 mmHg 56%
    09:00 +9°C° 0 mm 3 mps 716 mmHg 51%
    10:00 +11°C° 0 mm 3 mps 716 mmHg 46%
    11:00 +13°C° 0 mm 3 mps 716 mmHg 41%
    12:00 +14°C° 0 mm 3 mps 715 mmHg 39%
    13:00 +16°C° 0 mm 3 mps 715 mmHg 36%
    14:00 +17°C° 0 mm 3 mps 714 mmHg 34%
    15:00 +16°C° 0 mm 3 mps 714 mmHg 38%
    16:00 +15°C° 0 mm 2 mps 714 mmHg 42%
    17:00 +14°C° 0 mm 2 mps 714 mmHg 46%
    18:00 +13°C° 0 mm 2 mps 714 mmHg 46%
    19:00 +12°C° 0 mm 2 mps 714 mmHg 46%
    20:00 +12°C° 0 mm 2 mps 714 mmHg 47%
    21:00 +10°C° 0 mm 3 mps 714 mmHg 55%
    22:00 +10°C° 0 mm 3 mps 715 mmHg 64%
    23:00 +10°C° 0 mm 4 mps 715 mmHg 72%

    Tomorrow, 25 January, Friday

    Time Temperature Precipitation Wind Pressure Humidity
    00:00 +8°C° 0 mm 4 mps 716 mmHg 74%
    01:00 +8°C° 0 mm 4 mps 716 mmHg 77%
    02:00 +8°C° 0 mm 4 mps 717 mmHg 79%
    03:00 +7°C° 0 mm 4 mps 717 mmHg 80%
    04:00 +8°C° 0 mm 3 mps 717 mmHg 81%
    05:00 +8°C° 0 mm 3 mps 717 mmHg 82%
    06:00 +8°C° 0 mm 2 mps 717 mmHg 79%
    07:00 +9°C° 0 mm 2 mps 717 mmHg 75%
    08:00 +10°C° 0 mm 1 mps 718 mmHg 71%
    09:00 +11°C° 0 mm 1 mps 718 mmHg 63%
    10:00 +13°C° 0 mm 1 mps 718 mmHg 55%
    11:00 +14°C° 0 mm 2 mps 719 mmHg 47%
    12:00 +15°C° 0 mm 1 mps 718 mmHg 44%
    13:00 +15°C° 0 mm 1 mps 718 mmHg 41%
    14:00 +16°C° 0 mm 1 mps 718 mmHg 38%
    15:00 +15°C° 0 mm 2 mps 717 mmHg 39%
    16:00 +14°C° 0 mm 3 mps 717 mmHg 41%
    17:00 +13°C° 0 mm 3 mps 717 mmHg 43%
    18:00 +12°C° 0 mm 4 mps 717 mmHg 45%
    19:00 +12°C° 0 mm 5 mps 717 mmHg 47%
    20:00 +10°C° 0 mm 5 mps 717 mmHg 49%
    21:00 +10°C° 0 mm 5 mps 717 mmHg 49%
    22:00 +10°C° 0 mm 4 mps 717 mmHg 49%
    23:00 +10°C° 0 mm 4 mps 717 mmHg 49%

    Day after tomorrow, 26 January, Saturday

    Time Temperature Precipitation Wind Pressure Humidity
    00:00 +10°C° 0 mm 3 mps 717 mmHg 50%
    01:00 +9°C° 0 mm 3 mps 716 mmHg 51%
    02:00 +9°C° 0 mm 3 mps 716 mmHg 52%
    03:00 +8°C° 0 mm 2 mps 716 mmHg 54%
    04:00 +8°C° 0 mm 2 mps 715 mmHg 55%
    05:00 +7°C° 0 mm 2 mps 715 mmHg 57%
    06:00 +8°C° 0 mm 2 mps 715 mmHg 55%
    07:00 +9°C° 0 mm 2 mps 716 mmHg 54%
    08:00 +9°C° 0 mm 2 mps 716 mmHg 53%
    09:00 +12°C° 0 mm 2 mps 716 mmHg 48%
    10:00 +14°C° 0 mm 2 mps 716 mmHg 43%
    11:00 +15°C° 0 mm 2 mps 715 mmHg 38%
    12:00 +16°C° 0 mm 2 mps 715 mmHg 36%
    13:00 +17°C° 0 mm 3 mps 714 mmHg 33%
    14:00 +18°C° 0 mm 3 mps 714 mmHg 31%
    15:00 +17°C° 0 mm 3 mps 714 mmHg 34%
    16:00 +16°C° 0 mm 2 mps 713 mmHg 38%
    17:00 +15°C° 0 mm 2 mps 713 mmHg 41%
    18:00 +14°C° 0 mm 2 mps 713 mmHg 44%
    19:00 +13°C° 0 mm 1 mps 713 mmHg 47%
    20:00 +12°C° 0 mm 1 mps 712 mmHg 50%
    21:00 +12°C° 0 mm 1 mps 712 mmHg 51%
    22:00 +11°C° 0 mm 1 mps 712 mmHg 53%
    23:00 +11°C° 0 mm 1 mps 712 mmHg 54%

    27 January, Sunday

    Time Temperature Precipitation Wind Pressure Humidity
    00:00 +11°C° 0 mm 1 mps 712 mmHg 53%
    01:00 +10°C° 0 mm 1 mps 712 mmHg 52%
    02:00 +10°C° 0 mm 1 mps 712 mmHg 51%
    03:00 +10°C° 0 mm 1 mps 712 mmHg 60%
    04:00 +8°C° 0 mm 2 mps 712 mmHg 68%
    05:00 +8°C° 0 mm 2 mps 712 mmHg 76%
    06:00 +9°C° 0 mm 2 mps 713 mmHg 77%
    07:00 +9°C° 0 mm 2 mps 713 mmHg 79%
    08:00 +10°C° 0 mm 3 mps 714 mmHg 81%
    09:00 +11°C° 0 mm 3 mps 714 mmHg 70%
    10:00 +13°C° 0 mm 4 mps 714 mmHg 59%
    11:00 +14°C° 0 mm 4 mps 714 mmHg 48%
    12:00 +14°C° 0 mm 4 mps 714 mmHg 46%
    13:00 +15°C° 0 mm 4 mps 714 mmHg 43%
    14:00 +15°C° 0 mm 4 mps 713 mmHg 41%
    15:00 +14°C° 0 mm 4 mps 713 mmHg 44%
    16:00 +13°C° 0 mm 3 mps 713 mmHg 48%
    17:00 +12°C° 0 mm 3 mps 713 mmHg 52%
    18:00 +12°C° 0 mm 2 mps 714 mmHg 55%
    19:00 +10°C° 0 mm 2 mps 714 mmHg 58%
    20:00 +11°C° 0 mm 1 mps 714 mmHg 61%
    21:00 +10°C° 0 mm 1 mps 714 mmHg 63%
    22:00 +10°C° 0 mm 1 mps 714 mmHg 64%
    23:00 +9°C° 0 mm 1 mps 715 mmHg 66%

    28 January, Monday

    Time Temperature Precipitation Wind Pressure Humidity
    00:00 +9°C° 0 mm 1 mps 715 mmHg 68%
    01:00 +9°C° 0 mm 1 mps 714 mmHg 69%
    02:00 +8°C° 0 mm 1 mps 714 mmHg 71%
    03:00 +8°C° 0 mm 1 mps 714 mmHg 72%
    04:00 +8°C° 0 mm 1 mps 714 mmHg 73%
    05:00 +7°C° 0 mm 1 mps 714 mmHg 73%
    06:00 +8°C° 0 mm 1 mps 714 mmHg 68%
    07:00 +9°C° 0 mm 1 mps 715 mmHg 63%
    08:00 +9°C° 0 mm 1 mps 715 mmHg 58%
    09:00 +11°C° 0 mm 1 mps 715 mmHg 53%
    10:00 +12°C° 0 mm 1 mps 715 mmHg 48%
    11:00 +13°C° 0 mm 1 mps 715 mmHg 43%
    12:00 +13°C° 0 mm 2 mps 715 mmHg 42%
    13:00 +14°C° 0 mm 2 mps 714 mmHg 40%
    14:00 +13°C° 0 mm 3 mps 714 mmHg 38%
    15:00 +12°C° 0 mm 3 mps 714 mmHg 43%
    16:00 +11°C° 0 mm 3 mps 714 mmHg 49%
    17:00 +10°C° 0 mm 4 mps 714 mmHg 54%
    18:00 +10°C° 0 mm 3 mps 715 mmHg 56%
    19:00 +9°C° 0 mm 2 mps 715 mmHg 59%
    20:00 +9°C° 0 mm 2 mps 715 mmHg 61%
    21:00 +8°C° 0 mm 2 mps 716 mmHg 64%
    22:00 +8°C° 0 mm 2 mps 716 mmHg 66%
    23:00 +8°C° 0 mm 2 mps 716 mmHg 68%

    29 January, Tuesday

    Time Temperature Precipitation Wind Pressure Humidity
    00:00 +8°C° 0 mm 3 mps 716 mmHg 73%
    01:00 +8°C° 0 mm 3 mps 717 mmHg 78%
    02:00 +7°C° 0 mm 4 mps 717 mmHg 83%
    03:00 +7°C° 0 mm 5 mps 717 mmHg 84%
    04:00 +7°C° 0 mm 5 mps 717 mmHg 86%
    05:00 +7°C° 0 mm 5 mps 717 mmHg 87%
    06:00 +7°C° 0 mm 6 mps 718 mmHg 84%
    07:00 +8°C° 0 mm 6 mps 719 mmHg 80%
    08:00 +8°C° 0 mm 6 mps 719 mmHg 76%
    09:00 +10°C° 0 mm 6 mps 720 mmHg 69%
    10:00 +11°C° 0 mm 7 mps 720 mmHg 62%
    11:00 +12°C° 0 mm 7 mps 720 mmHg 55%
    12:00 +12°C° 0 mm 7 mps 720 mmHg 53%
    13:00 +14°C° 0 mm 7 mps 720 mmHg 51%
    14:00 +14°C° 0 mm 7 mps 720 mmHg 49%
    15:00 +13°C° 0 mm 6 mps 720 mmHg 55%
    16:00 +12°C° 0 mm 5 mps 720 mmHg 60%
    17:00 +11°C° 0 mm 4 mps 720 mmHg 65%
    18:00 +10°C° 0 mm 3 mps 721 mmHg 70%
    19:00 +10°C° 0 mm 2 mps 721 mmHg 74%
    20:00 +10°C° 0 mm 1 mps 721 mmHg 79%
    21:00 +10°C° 0 mm 1 mps 721 mmHg 80%
    22:00 +9°C° 0 mm 1 mps 721 mmHg 81%
    23:00 +9°C° 0 mm 1 mps 721 mmHg 81%
    Show more